Location: Amarillo Post Office Jordan Station
(35.1907°N, 101.9342°W)
Time: 13:48:23
(UTC+00:00)

Radarsat Rocket - Pass Details

Date: 24 January 2021
Orbit: 933 x 1492 km, 100.6° (Epoch: 03 March)

Event Time Altitude Azimuth Distance (km) Brightness Sun altitude
Rises 13:11:24 0° 14° (NNE) 4,334 7.3 -8.6°
Reaches altitude 10° 13:14:15 10° 14° (NNE) 3,286 6.7 -8.0°
Maximum altitude 13:21:45 85° 287° (WNW) 1,170 4.4 -6.6°
Drops below altitude 10° 13:28:18 10° 200° (SSW) 2,879 6.5 -5.3°
Sets 13:30:39 0° 199° (SSW) 3,770 7.1 -4.9°
